Location: Unspecified
(43.4354°N, 0.0000°E)
Time: 07:26:49
(UTC+00:00)

Tiros 1 despin weight - Pass Details

Date: 29 June 2019
Orbit: 594 x 642 km, 48.2° (Epoch: 17 July)

Event Time Altitude Azimuth Distance (km) Brightness Sun altitude
Rises 03:21:42 0° 286° (WNW) 2,833 ? -9.3°
Reaches altitude 10° 03:24:32 10° 269° (W) 1,925 ? -8.9°
Maximum altitude 03:27:37 19° 224° (SW) 1,432 ? -8.5°
Drops below altitude 10° 03:30:42 10° 179° (S) 1,917 ? -8.1°
Sets 03:33:31 0° 161° (SSE) 2,818 ? -7.7°
